Wind_Speed
55 55 57 59 61 65 70 69 69 67 64 52 41 51 59 65 67 66 66 66 66 65 62 60 58 57 57 55 53 51 49 48 47 47 49 48 47 46
47 49 52 53 55 59 65 66 68 66 63 51 46 46 46 49 60 67 67 68 68 66 65 64 62 60 59 59 56 54 51 50 49 50 51 51 48 45
42 43 44 47 47 49 54 62 66 68 62 59 56 46 38 40 49 59 66 67 70 69 66 66 65 63 62 61 59 56 54 52 51 50 52 52 48 45
37 38 39 42 42 42 42 49 58 65 66 60 63 62 46 38 39 42 54 61 63 68 68 65 65 65 63 62 62 59 56 54 53 52 52 52 50 48
33 35 35 36 37 36 37 39 46 52 62 69 64 64 59 46 39 39 41 48 54 59 61 63 65 65 65 63 63 61 59 57 55 53 52 52 52 51
27 30 32 31 32 34 35 35 39 43 50 65 73 66 64 62 50 47 42 41 41 52 59 62 61 61 66 68 65 62 61 60 57 55 53 52 53 54
26 24 27 29 31 34 36 34 36 39 42 50 65 73 69 69 68 62 54 51 45 50 58 55 56 57 55 54 56 60 63 64 60 56 54 53 53 55
31 28 25 24 26 30 35 37 38 40 42 46 54 63 67 72 72 72 71 66 59 54 52 50 48 57 59 54 49 48 50 55 60 62 59 56 55 56
30 28 28 27 27 27 28 31 35 39 42 46 50 55 60 67 73 76 75 73 73 72 69 62 52 54 58 55 56 51 52 52 53 56 60 61 60 61
33 31 30 31 32 33 34 34 35 37 41 44 47 51 57 60 65 73 76 77 77 78 80 76 73 68 55 61 63 60 60 59 54 51 54 58 62 63
39 39 39 38 39 39 40 40 43 45 46 47 49 52 54 58 60 67 72 76 79 79 79 80 78 77 75 65 59 57 59 62 63 59 57 56 56 59
43 44 45 47 47 48 50 51 51 51 54 56 57 58 60 61 62 64 67 70 72 74 76 76 77 80 81 79 77 74 72 67 63 61 61 63 62 60
46 47 49 51 53 55 58 60 60 57 57 59 62 66 68 69 67 65 65 65 65 65 66 67 72 74 77 80 78 76 74 70 69 68 66 65 65 65
52 52 53 54 57 60 63 65 64 60 61 64 67 70 73 75 74 72 68 67 64 62 61 60 63 66 69 72 74 77 76 73 70 75 76 73 69 68
56 57 59 60 63 65 67 67 67 66 67 68 69 69 72 75 76 76 75 71 67 64 61 59 58 59 61 63 64 66 67 69 69 70 75 80 76 70
60 62 64 67 69 69 68 67 65 65 65 62 61 61 64 70 72 72 75 76 72 66 62 60 58 57 56 56 57 58 59 62 63 65 68 70 68 69
64 66 69 71 69 66 63 60 58 58 59 57 54 53 54 59 63 65 67 73 74 68 63 61 60 59 57 55 56 56 56 57 59 59 59 61 64 67
69 72 72 69 65 60 57 55 55 53 52 51 48 45 46 49 54 58 60 63 68 68 63 59 59 58 58 57 56 56 57 57 57 59 59 59 57 58
74 73 70 65 60 56 55 53 52 49 47 45 42 39 39 42 46 52 56 57 59 62 61 58 56 56 56 56 55 55 56 57 57 56 58 59 58 57
76 73 67 62 58 55 53 51 48 44 41 38 36 34 34 37 39 46 52 53 53 55 57 56 55 54 52 52 52 53 55 57 58 58 57 57 59 56
72 68 63 59 57 54 51 47 43 39 35 32 31 30 31 34 35 41 46 49 50 51 53 53 53 53 51 51 51 51 53 56 56 56 56 57 59 59
68 64 60 57 55 51 47 42 38 34 30 28 28 28 28 30 33 39 43 46 48 49 50 50 49 51 52 52 51 50 49 51 53 53 53 53 54 54
63 60 57 53 49 45 41 37 33 30 27 25 26 27 27 28 30 36 42 44 45 46 46 46 46 47 48 48 47 45 44 46 48 50 51 49 48 48
Wind_Direction
270 267 268 266 261 256 253 251 251 253 255 259 250 229 234 241 238 234 232 233 236 237 236 236 236 237 238 240 242 244 245 245 245 244 245 246 247 251
272 274 272 264 260 257 256 253 248 247 248 248 244 221 222 229 239 239 237 235 234 235 236 236 236 238 240 240 240 241 243 244 244 243 242 243 245 248
274 276 272 265 261 261 258 257 253 246 245 245 243 235 224 224 234 239 241 242 240 235 236 237 237 238 239 241 241 241 242 242 244 244 243 244 244 247
277 276 274 269 262 263 262 260 259 251 244 243 245 245 237 215 216 234 236 241 244 241 238 237 239 240 240 241 242 243 242 242 242 243 244 245 245 246
282 278 278 273 264 265 266 261 260 258 248 243 245 245 244 234 235 240 235 239 244 242 242 241 239 240 242 242 243 244 244 243 241 241 243 244 245 245
302 284 280 276 265 264 267 262 260 261 255 246 245 245 244 246 251 246 241 240 240 231 238 242 242 243 243 243 244 245 246 245 244 243 242 242 244 245
323 307 287 279 269 265 266 262 260 261 259 252 249 248 246 246 248 248 247 250 245 228 230 242 241 243 248 250 250 248 246 246 244 245 245 244 242 243
320 319 313 299 284 273 267 263 259 257 257 255 251 252 251 249 248 249 249 249 250 241 233 230 232 234 243 244 246 248 248 247 246 242 240 243 244 244
309 311 312 312 308 299 289 279 270 261 255 253 252 252 252 250 250 250 249 247 246 248 248 238 239 238 233 238 245 246 246 248 250 247 243 242 243 245
304 304 302 301 300 300 299 297 293 283 272 260 252 250 251 251 250 250 249 247 244 243 245 246 247 246 241 236 236 243 249 250 248 247 248 248 246 245
304 303 302 300 298 295 295 295 293 288 283 276 266 256 250 249 248 248 248 247 246 243 241 244 245 248 249 242 237 238 242 244 247 247 246 247 248 251
300 299 298 297 296 294 294 295 294 287 279 273 268 263 255 249 247 245 245 246 246 244 241 243 243 244 246 247 247 248 251 252 246 244 242 246 249 250
297 296 295 294 293 293 294 295 294 288 280 274 267 260 256 251 246 244 244 243 243 243 241 240 241 240 242 244 244 247 247 248 248 247 244 242 245 249
297 296 294 293 293 294 295 296 293 287 282 277 270 259 251 249 247 243 241 242 241 241 239 237 239 239 240 241 241 241 243 242 241 248 250 248 249 247
299 298 298 298 297 298 297 296 294 289 283 277 271 263 252 244 243 242 240 239 240 240 239 237 237 238 238 240 242 241 241 240 240 242 247 252 254 249
300 300 301 301 301 301 299 296 293 287 281 276 271 265 256 246 240 239 238 237 238 238 239 239 238 237 238 238 238 239 237 236 235 238 241 245 247 247
301 302 303 303 302 300 297 292 287 282 280 278 272 265 258 248 240 236 235 234 234 235 236 238 238 238 237 237 237 237 238 238 239 239 238 238 238 240
303 304 304 303 301 297 292 287 284 281 280 278 271 263 254 245 237 233 231 231 232 233 234 236 237 237 237 236 236 236 238 240 244 246 245 246 245 246
304 304 303 301 298 293 289 285 282 279 277 275 268 259 247 239 235 230 228 228 228 229 231 233 235 235 236 236 235 236 238 240 242 245 247 250 250 251
303 302 301 298 295 291 287 283 279 275 274 269 262 253 241 237 234 228 226 226 225 225 227 230 232 232 234 236 236 237 237 238 240 243 246 248 248 254
301 299 297 295 292 289 285 279 274 270 268 260 252 246 238 235 233 225 224 223 222 221 223 226 229 230 231 234 236 239 240 239 240 243 247 249 252 257
298 296 293 291 289 284 279 273 267 264 259 248 240 236 232 230 230 222 220 221 219 218 218 222 226 228 231 234 238 241 243 240 239 242 246 252 254 256
294 293 291 289 284 278 272 266 259 256 251 236 231 229 224 224 223 220 215 216 218 216 215 218 222 225 228 231 234 238 238 239 243 246 248 250 250 253
Height
5546 5545 5544 5545 5544 5545 5547 5553 5560 5565 5573 5580 5585 5587 5593 5597 5601 5606 5614 5623 5630 5636 5643 5649 5655 5660 5664 5670 5675 5678 5680 5683 5687 5690 5692 5695 5697 5699
5531 5530 5528 5527 5527 5529 5530 5534 5541 5548 5555 5565 5569 5572 5575 5581 5585 5590 5597 5604 5612 5619 5626 5633 5640 5645 5649 5653 5660 5665 5668 5671 5674 5678 5681 5683 5686 5688
5518 5516 5514 5514 5515 5515 5517 5519 5525 5532 5538 5548 5553 5556 5561 5567 5571 5576 5581 5588 5595 5603 5610 5618 5625 5630 5634 5639 5644 5650 5654 5658 5662 5664 5667 5670 5673 5677
5506 5504 5503 5501 5503 5503 5505 5507 5509 5514 5522 5530 5536 5543 5548 5554 5559 5565 5570 5573 5581 5589 5595 5602 5609 5614 5619 5625 5629 5635 5640 5644 5648 5650 5653 5657 5660 5663
5496 5494 5492 5489 5491 5493 5494 5495 5496 5498 5504 5512 5519 5527 5535 5540 5546 5551 5559 5564 5569 5576 5581 5586 5592 5598 5604 5609 5615 5621 5626 5630 5634 5638 5640 5643 5646 5650
5488 5485 5482 5481 5481 5482 5483 5485 5486 5487 5490 5497 5503 5511 5519 5525 5530 5538 5545 5553 5556 5562 5566 5571 5576 5581 5586 5593 5600 5606 5611 5615 5619 5624 5628 5631 5633 5637
5481 5476 5473 5471 5472 5472 5473 5475 5476 5476 5479 5482 5488 5493 5504 5510 5516 5522 5529 5536 5541 5547 5554 5558 5563 5566 5570 5576 5582 5588 5594 5599 5604 5609 5613 5617 5621 5623
5477 5472 5468 5465 5463 5462 5463 5464 5466 5466 5468 5470 5474 5480 5489 5495 5500 5505 5511 5518 5527 5536 5539 5542 5546 5552 5556 5562 5567 5573 5577 5581 5585 5590 5595 5601 5605 5609
5472 5468 5464 5459 5456 5454 5453 5453 5454 5456 5457 5458 5461 5467 5471 5479 5482 5487 5493 5500 5510 5515 5517 5523 5529 5536 5542 5547 5551 5557 5562 5565 5569 5573 5578 5583 5589 5592
5462 5459 5457 5454 5450 5446 5445 5445 5445 5445 5446 5447 5448 5451 5453 5457 5461 5464 5468 5477 5484 5489 5497 5506 5513 5521 5525 5529 5536 5541 5545 5550 5554 5558 5562 5567 5571 5575
5451 5447 5445 5444 5441 5437 5435 5435 5434 5434 5433 5431 5433 5435 5436 5438 5441 5442 5447 5453 5460 5470 5478 5485 5494 5500 5506 5513 5520 5525 5530 5533 5537 5542 5546 5550 5554 5558
5439 5435 5432 5429 5427 5423 5420 5419 5418 5419 5416 5413 5412 5412 5415 5418 5420 5423 5428 5431 5438 5446 5459 5464 5471 5477 5483 5492 5500 5507 5512 5518 5522 5526 5528 5532 5536 5541
5426 5422 5419 5414 5410 5407 5403 5399 5397 5395 5393 5392 5391 5390 5391 5394 5398 5402 5407 5411 5417 5425 5437 5441 5446 5453 5459 5470 5480 5486 5492 5499 5505 5509 5512 5516 5519 5523
5410 5406 5402 5398 5393 5388 5383 5378 5373 5370 5368 5366 5363 5363 5365 5368 5374 5380 5386 5390 5397 5406 5413 5419 5425 5432 5440 5446 5455 5465 5471 5479 5484 5488 5494 5499 5502 5506
5391 5386 5381 5377 5372 5366 5360 5353 5348 5344 5339 5334 5331 5332 5336 5341 5346 5353 5361 5368 5376 5385 5392 5401 5408 5414 5421 5430 5437 5444 5449 5456 5463 5469 5473 5478 5483 5488
5372 5365 5359 5353 5347 5341 5334 5328 5321 5314 5308 5305 5302 5303 5305 5311 5319 5328 5337 5346 5354 5365 5374 5382 5389 5396 5404 5413 5420 5426 5431 5437 5443 5448 5453 5459 5463 5467
5351 5345 5338 5330 5322 5314 5308 5301 5295 5290 5284 5280 5279 5278 5281 5286 5296 5305 5314 5324 5335 5347 5357 5364 5370 5378 5386 5395 5402 5409 5416 5422 5427 5431 5435 5438 5443 5449
5327 5320 5312 5305 5297 5291 5285 5279 5272 5267 5263 5260 5258 5258 5261 5266 5274 5284 5294 5304 5316 5328 5339 5348 5355 5362 5369 5378 5386 5394 5401 5406 5411 5415 5419 5423 5428 5433
5302 5294 5288 5281 5275 5269 5263 5258 5254 5249 5245 5242 5241 5242 5244 5250 5257 5267 5277 5287 5298 5310 5322 5331 5340 5347 5355 5363 5371 5379 5385 5390 5395 5399 5404 5409 5414 5416
5277 5271 5265 5259 5253 5248 5242 5238 5234 5232 5229 5227 5227 5229 5232 5238 5243 5252 5262 5272 5283 5294 5305 5315 5324 5333 5341 5350 5357 5363 5367 5373 5379 5385 5390 5395 5398 5401
5254 5247 5242 5237 5232 5227 5222 5219 5217 5216 5215 5214 5216 5219 5222 5227 5232 5239 5249 5259 5269 5279 5290 5300 5310 5320 5328 5335 5341 5346 5352 5358 5365 5371 5375 5379 5382 5385
5231 5225 5220 5214 5210 5206 5204 5203 5202 5202 5203 5204 5207 5210 5213 5217 5222 5228 5237 5246 5256 5266 5276 5287 5296 5305 5313 5320 5327 5333 5339 5344 5350 5355 5360 5364 5366 5370
5208 5202 5197 5193 5189 5187 5187 5188 5189 5190 5191 5194 5198 5201 5205 5208 5212 5218 5227 5236 5245 5255 5265 5275 5283 5291 5299 5307 5314 5320 5326 5331 5336 5341 5345 5349 5353 5356